[[{"header":{"parameterUnit":"m.s-1","parameterCategory":1,"la1":30.2991,"la2":30.254,"lo1":-89.0895,"lo2":-89.0444,"dy":0.0017,"dx":0.0017,"nx":28,"ny":28,"refTime":"2024-10-11T21:00:00:Z","depth":0,"parameterNumber":2,"parameterNumberName":"U-component_of_WINDS"},"data":[0,0,0,0,0,0,0,0,0,0,0,0,0,0,0,0,0,0,0,0,0,0,0,0,0,0,0,0,0,0,0,0,0,0,0,0,0,0,0,0,0,0,0,0,0,0,0,0,0,0,0,0,0,0,0,0,0,0,0.2457,0.2456,0,0.2356,0.2354,0.2353,0.2318,0.2318,0.2319,0.2319,0.2209,0.2206,0.2203,0,0,0,0,0,0,0,0,0,0,0,0,0,0.2613,0.261,0.2457,0.2456,0.2454,0.2356,0.2354,0.2353,0.2318,0.2318,0.2319,0.2319,0.221,0.2206,0.2202,0,0,0,0,0,0,0,0,0,0,0,0,0,0.2532,0.2609,0.2457,0.2425,0.2421,0.2356,0.2354,0.2353,0.2318,0.2318,0.2319,0.2319,0.2211,0.2207,0.2202,0.2159,0,0,0.2187,0.2184,0,0,0,0,0,0,0,0,0.2536,0.2526,0.2431,0.2427,0.2423,0.235,0.2369,0.2287,0.2317,0.2357,0.2319,0.232,0.2255,0.2247,0.2226,0.2154,0.2149,0.2186,0.2183,0.2181,0.218,0,0,0,0,0,0,0,0.2542,0.253,0.2417,0.243,0.2425,0.2413,0.2403,0.2353,0.2303,0.2353,0.2351,0.2339,0.2253,0.2231,0.2223,0.2148,0.2186,0.2182,0.2179,0.2177,0.2033,0.2032,0,0,0,0,0,0,0.2554,0.2535,0.242,0.2414,0.2482,0.241,0.2398,0.2373,0.2304,0.2294,0.2339,0.2338,0.2239,0.2229,0.2219,0.2163,0.2181,0.2176,0.2174,0.2033,0.2032,0.2031,0,0,0,0,0,0,0.2557,0.2544,0.2424,0.2473,0.2457,0.2407,0.2379,0.237,0.2348,0.2293,0.2283,0.2326,0.2239,0.2226,0.2174,0.2159,0.2174,0.217,0.2034,0.2033,0.2032,0.2052,0,0,0,0,0,0,0.2562,0.2546,0.2531,0.2474,0.2455,0.2383,0.2378,0.2368,0.2341,0.2339,0.2279,0.2269,0.2239,0.2182,0.2169,0.2152,0.2166,0.2036,0.2034,0.2032,0.2052,0.2051,0.205,0,0,0,0,0,0.2568,0.2539,0.253,0.2516,0.2436,0.2382,0.2371,0.2338,0.234,0.2323,0.2287,0.2271,0.2163,0.2177,0.2162,0.2144,0.2036,0.2034,0.2032,0.2052,0.2051,0.205,0,0,0,0,0,0,0.2594,0.2531,0.252,0.2473,0.2434,0.2376,0.2355,0.2339,0.2296,0.2296,0.2255,0.2241,0.2192,0.2163,0.2179,0.2097,0.2098,0.2093,0.2118,0.2117,0.2116,0.2123,0.2162,0,0,0,0,0,0.2595,0.2559,0.2505,0.2469,0.245,0.2406,0.2381,0.2359,0.2315,0.2298,0.2258,0.2215,0.217,0.2142,0.2099,0.2048,0.2033,0.2028,0.2027,0.2026,0.2022,0.199,0.1987,0.2025,0.2025,0.2025,0,0,0.2596,0.2557,0.2536,0.2473,0.244,0.2401,0.2392,0.2351,0.2321,0.2291,0.224,0.2209,0.2157,0.2105,0.208,0.2079,0.2008,0.2024,0.2024,0.202,0.1988,0.1984,0.1981,0.2024,0.2024,0.2024,0,0,0.2577,0.2545,0.251,0.2477,0.2427,0.2397,0.2389,0.2334,0.2313,0.2261,0.2237,0.2199,0.2125,0.2088,0.206,0.2026,0.2008,0.2012,0.2007,0.1977,0.1974,0.1971,0.1956,0.1952,0.2009,0.2009,0.2009,0,0.2583,0.2526,0.2493,0.2454,0.2426,0.2398,0.2361,0.233,0.2267,0.2247,0.2247,0.2152,0.2115,0.2053,0.2045,0.2024,0.201,0.2019,0.1977,0.1974,0.1971,0.1956,0.1951,0.2009,0.2009,0.2009,0.2009,0,0.2535,0.2495,0.2473,0.2415,0.2384,0.2346,0.2305,0.2277,0.2258,0.2227,0.2173,0.2128,0.2074,0.2058,0.2038,0.1992,0.1993,0.1986,0.1986,0.1968,0.1954,0.1948,0.201,0.201,0.201,0.201,0,0,0.253,0.2454,0.2446,0.2419,0.2361,0.2328,0.2288,0.2236,0.2212,0.2169,0.2132,0.207,0.2062,0.203,0.2005,0.1979,0.1951,0.1974,0.1972,0.197,0.1895,0.19,0.1894,0.194,0.1939,0.1938,0.1899,0,0.2502,0.2431,0.24,0.2341,0.2303,0.2275,0.2239,0.2198,0.2168,0.2129,0.2095,0.2051,0.2046,0.2026,0.1998,0.1961,0.1935,0.1963,0.1902,0.1901,0.1915,0.1887,0.1892,0.1857,0.1893,0.1892,0.1891,0,0.2461,0.2419,0.2357,0.2302,0.2285,0.2253,0.2202,0.2167,0.2118,0.2098,0.2062,0.2038,0.1992,0.1996,0.1929,0.1949,0.1922,0.1899,0.1897,0.1889,0.1894,0.1876,0.1845,0.1839,0.1882,0.1883,0.1884,0,0.2461,0.239,0.2343,0.232,0.2255,0.2233,0.2205,0.2157,0.2128,0.2083,0.2062,0.2012,0.1984,0.1944,0.1906,0.1913,0.1842,0.1844,0.1822,0.1823,0.1807,0.1808,0.177,0.1793,0.1793,0.1793,0.1793,0,0.2432,0.2395,0.2342,0.2313,0.2269,0.2232,0.2189,0.2158,0.2116,0.2079,0.2051,0.2016,0.1969,0.1927,0.1897,0.1845,0.1833,0.1813,0.1806,0.1815,0.1817,0.1796,0.1796,0.1792,0.1792,0.1792,0.1793,0,0.2425,0.2389,0.2335,0.2278,0.2263,0.2233,0.2183,0.2152,0.2121,0.2073,0.206,0.201,0.1959,0.1918,0.1851,0.183,0.1775,0.1767,0.1792,0.1787,0.1767,0.1769,0.1712,0.1701,0.1734,0.1733,0.1733,0,0.2409,0.238,0.2319,0.2293,0.2265,0.2223,0.2193,0.2155,0.2124,0.2066,0.2041,0.1989,0.1945,0.1864,0.182,0.1768,0.1757,0.1741,0.1749,0.1758,0.1754,0.1756,0.1751,0.1739,0.1739,0.1739,0.1739,0,0.2383,0.2366,0.2325,0.2276,0.2241,0.22,0.2159,0.2138,0.2092,0.2058,0.2006,0.1972,0.1904,0.1851,0.1794,0.1761,0.1741,0.1737,0.1729,0.1737,0.1752,0.1741,0.1787,0.1738,0.1738,0.1738,0.1738,0.1738,0.2369,0.2341,0.2294,0.2248,0.2213,0.2174,0.2142,0.2107,0.2064,0.2006,0.1986,0.1932,0.1881,0.1803,0.177,0.1726,0.1724,0.1712,0.1709,0.1706,0.1706,0.1761,0.1715,0.1715,0.1715,0.1715,0.1715,0,0.234,0.2308,0.2266,0.221,0.2173,0.2159,0.2112,0.2081,0.2035,0.199,0.1947,0.1886,0.1834,0.1786,0.1731,0.1704,0.1693,0.1691,0.1692,0.1684,0.1712,0.1724,0.1701,0.1701,0.1701,0.1701,0.1701,0.1701,0.2321,0.2272,0.2249,0.218,0.2148,0.2096,0.207,0.2033,0.1998,0.1931,0.1888,0.1858,0.1811,0.1752,0.1703,0.1689,0.1669,0.1669,0.1653,0.168,0.1682,0.1684,0.1695,0.1665,0.1665,0.1628,0.1627,0.1627]},{"header":{"parameterUnit":"m.s-1","parameterCategory":1,"la1":30.2991,"la2":30.254,"lo1":-89.0895,"lo2":-89.0444,"dy":0.0017,"dx":0.0017,"nx":28,"ny":28,"refTime":"2024-10-11T21:00:00:Z","depth":0,"parameterNumber":3,"parameterNumberName":"V-component_of_WINDS"},"data":[0,0,0,0,0,0,0,0,0,0,0,0,0,0,0,0,0,0,0,0,0,0,0,0,0,0,0,0,0,0,0,0,0,0,0,0,0,0,0,0,0,0,0,0,0,0,0,0,0,0,0,0,0,0,0,0,0,0,1.4863,1.4862,0,1.481,1.4809,1.4808,1.4765,1.4764,1.4764,1.4764,1.4708,1.4707,1.4706,0,0,0,0,0,0,0,0,0,0,0,0,0,1.4923,1.4922,1.4863,1.4862,1.4862,1.481,1.4809,1.4808,1.4765,1.4764,1.4764,1.4763,1.4708,1.4707,1.4706,0,0,0,0,0,0,0,0,0,0,0,0,0,1.4886,1.4922,1.4863,1.4834,1.483,1.481,1.4809,1.4808,1.4765,1.4764,1.4764,1.4763,1.4709,1.4707,1.4706,1.471,0,0,1.4701,1.47,0,0,0,0,0,0,0,0,1.4888,1.4884,1.4839,1.4836,1.4832,1.4793,1.481,1.4775,1.4765,1.479,1.4764,1.4763,1.4737,1.4733,1.4724,1.4707,1.4705,1.4701,1.47,1.4699,1.4699,0,0,0,0,0,0,0,1.4891,1.4886,1.4842,1.4838,1.4834,1.4822,1.4816,1.4803,1.4768,1.4788,1.4784,1.4779,1.4735,1.4726,1.4723,1.4704,1.4701,1.4699,1.4698,1.4698,1.4682,1.4683,0,0,0,0,0,0,1.4898,1.4888,1.4843,1.484,1.4859,1.4821,1.4815,1.4806,1.4768,1.4761,1.4779,1.4777,1.4729,1.4725,1.4721,1.472,1.4699,1.4698,1.4697,1.4682,1.4682,1.4683,0,0,0,0,0,0,1.49,1.4895,1.4846,1.4863,1.4856,1.4821,1.4812,1.4806,1.4797,1.4762,1.4755,1.4777,1.4728,1.4723,1.4712,1.4718,1.4697,1.4695,1.4681,1.4682,1.4683,1.4721,0,0,0,0,0,0,1.4901,1.4895,1.4898,1.4864,1.4855,1.4839,1.4813,1.4805,1.4794,1.4791,1.4758,1.4751,1.4727,1.4714,1.471,1.4715,1.4694,1.468,1.4681,1.4682,1.4719,1.4723,1.4726,0,0,0,0,0,1.4904,1.4911,1.4898,1.4893,1.4858,1.484,1.4835,1.4807,1.4795,1.4796,1.4773,1.4753,1.4718,1.4714,1.4709,1.4713,1.468,1.4681,1.4682,1.4717,1.4722,1.4726,0,0,0,0,0,0,1.4947,1.4906,1.4891,1.4888,1.4868,1.4832,1.4833,1.4814,1.4796,1.4793,1.4759,1.4752,1.4744,1.4727,1.4724,1.4712,1.4696,1.4696,1.4724,1.4728,1.4732,1.4736,1.4693,0,0,0,0,0,1.4957,1.4946,1.491,1.4911,1.4901,1.4869,1.486,1.484,1.4818,1.4809,1.4785,1.4763,1.4746,1.4736,1.472,1.4716,1.4706,1.4716,1.472,1.4723,1.4723,1.4717,1.472,1.4687,1.4687,1.4687,0,0,1.4976,1.4952,1.4948,1.4919,1.4901,1.4889,1.4862,1.4852,1.4842,1.4807,1.4794,1.4776,1.4749,1.474,1.4735,1.4726,1.473,1.4724,1.4727,1.4726,1.4718,1.4721,1.4724,1.4688,1.4688,1.4687,0,0,1.5004,1.4986,1.4983,1.4965,1.4937,1.4915,1.4914,1.4881,1.4867,1.4853,1.4826,1.4813,1.4787,1.4767,1.4754,1.4771,1.475,1.4766,1.4785,1.4779,1.4782,1.4784,1.4788,1.479,1.4767,1.4767,1.4767,0,1.5031,1.5014,1.4984,1.4974,1.4961,1.4928,1.4923,1.4906,1.4875,1.4866,1.4856,1.4819,1.4799,1.4784,1.4787,1.4779,1.4775,1.477,1.4784,1.4786,1.4787,1.479,1.4792,1.4769,1.4769,1.4768,1.4768,0,1.5047,1.5035,1.5035,1.5005,1.4992,1.4985,1.4952,1.4942,1.4923,1.4901,1.4886,1.4859,1.4835,1.483,1.4812,1.4811,1.4806,1.4791,1.4773,1.4793,1.4795,1.4796,1.4772,1.4771,1.477,1.477,0,0,1.5104,1.5054,1.5055,1.5039,1.5004,1.4994,1.4983,1.4959,1.495,1.4929,1.4918,1.4894,1.4878,1.4863,1.4841,1.4836,1.4848,1.4821,1.4819,1.4825,1.4843,1.4854,1.4856,1.4834,1.4834,1.4834,1.4844,0,1.5125,1.5107,1.5078,1.5067,1.5054,1.502,1.5011,1.4988,1.4966,1.495,1.4926,1.4909,1.4891,1.4881,1.4874,1.4848,1.4851,1.4847,1.4822,1.4821,1.4829,1.4858,1.4871,1.4882,1.4845,1.4846,1.4846,0,1.5149,1.5128,1.5117,1.508,1.5073,1.5066,1.5039,1.5025,1.4997,1.4981,1.4962,1.4938,1.4923,1.4907,1.4885,1.4883,1.487,1.4855,1.4855,1.4851,1.4835,1.4854,1.4885,1.4887,1.4847,1.4847,1.4847,0,1.5189,1.5158,1.5146,1.5134,1.5091,1.5086,1.5068,1.5039,1.5025,1.5001,1.4992,1.4967,1.4953,1.4933,1.4902,1.4894,1.4882,1.4864,1.4867,1.4867,1.4866,1.4866,1.4895,1.486,1.4859,1.4859,1.4859,0,1.5216,1.521,1.5163,1.5156,1.5147,1.5112,1.5104,1.5082,1.5056,1.5042,1.5011,1.4999,1.4959,1.4941,1.4916,1.4899,1.4894,1.4879,1.4872,1.4881,1.4883,1.4873,1.4871,1.486,1.486,1.486,1.486,0,1.5259,1.5228,1.5213,1.5173,1.5162,1.5157,1.5122,1.5112,1.5088,1.5071,1.5065,1.5026,1.5003,1.4969,1.4936,1.4919,1.4906,1.4896,1.4916,1.4912,1.4916,1.4915,1.4938,1.4938,1.4904,1.4904,1.4905,0,1.5278,1.5272,1.5231,1.522,1.5202,1.5185,1.517,1.5135,1.5121,1.5085,1.5079,1.5054,1.5032,1.4996,1.4964,1.4937,1.4925,1.4935,1.4921,1.4929,1.4923,1.4924,1.4922,1.4938,1.4939,1.4939,1.494,0,1.5314,1.5298,1.5279,1.5253,1.5236,1.5214,1.519,1.5183,1.5142,1.5127,1.5102,1.5085,1.505,1.5024,1.4993,1.4972,1.4948,1.4944,1.4943,1.4952,1.4963,1.4955,1.4924,1.4944,1.4944,1.4943,1.4943,1.4943,1.5345,1.5337,1.5306,1.5284,1.5262,1.524,1.5228,1.5202,1.5181,1.515,1.513,1.5106,1.5074,1.5029,1.5009,1.4988,1.4979,1.4978,1.4977,1.4978,1.498,1.4967,1.4983,1.4983,1.4982,1.4982,1.4982,0,1.5378,1.5355,1.5336,1.5303,1.5285,1.5265,1.5236,1.5222,1.5202,1.5174,1.5152,1.5123,1.5096,1.5061,1.5032,1.5022,1.501,1.5015,1.5015,1.501,1.4991,1.4994,1.5025,1.5025,1.5025,1.5025,1.5025,1.5025,1.5393,1.5377,1.5357,1.533,1.5307,1.5284,1.5269,1.5247,1.5225,1.5193,1.5171,1.5149,1.5117,1.5084,1.5058,1.5048,1.5038,1.5046,1.5033,1.5016,1.5012,1.5008,1.5011,1.5045,1.5045,1.5053,1.5054,1.5054]}]]